Weather History for Billings, MT

Change the Weather History Date:

Tuesday, March 13, 2012

  Actual Average Record
Temperature  
Mean Temperature 51 °F 37 °F  
Max Temperature 67 °F 48 °F 69 °F (2013)
Min Temperature 35 °F 26 °F -4 °F (1944)
Degree Days  
Heating Degree Days 14 28  
Month to date heating degree days 276 386  
Since 1 July heating degree days 4784 5351  
Cooling Degree Days 0 0  
Month to date cooling degree days 0 0  
Year to date cooling degree days 0 0  
Growing Degree Days 2 (Base 50)    
Moisture  
Dew Point 22 °F    
Average Humidity 40    
Maximum Humidity 64    
Minimum Humidity 16    
Precipitation  
Precipitation 0.00 in 0.03 in 0.39 in (1953)
Month to date precipitation 0.10 0.35  
Year to date precipitation 0.95 1.31  
Snow  
Snow 0.00 in 0.30 in 4.30 in (1967)
Month to date snowfall 1.2 4.1  
Since 1 July snowfall 30.0 38.6  
Snow Depth 0.00 in    
Sea Level Pressure  
Sea Level Pressure 29.53 in    
Wind  
Wind Speed 13 mph (WSW)    
Max Wind Speed 36 mph    
Max Gust Speed 47 mph    
Visibility 10 miles    
Events      
T = Trace of Precipitation, MM = Missing Value Source: NWS Daily Summary

Daily Weather History Graph

Daily Weather History Graph

Search for Another Location

Airport:

Trip Planner

Search our weather history database for the weather conditions in past years. The results will help you decide how hot, cold, wet, or windy it might be!

Date:

Astronomy

Mar. 13, 2012 Rise Set
Actual Time 7:29 AM MDT 7:18 PM MDT
Civil Twilight 6:59 AM MDT 7:47 PM MDT
Nautical Twilight 6:25 AM MDT 8:22 PM MDT
Astronomical Twilight 5:50 AM MDT 8:57 PM MDT
Moon 1:13 AM MDT (3/13) 10:24 AM MDT (3/13)
Length of Visible Light 12h 47m
Length of Day
11h 48m
Waning Gibbous, 65% of the Moon is Illuminated
Mar 13
Waning Gibbous
Mar 14
Last Quarter
Mar 22
New
Mar 30
First Quarter
Apr 6
Full

Hourly Weather History & Observations

Time (MDT) Temp. Windchill Dew Point Humidity Pressure Visibility Wind Dir Wind Speed Gust Speed Precip Events Conditions
12:53 AM 41.0 °F 38.0 °F 27.0 °F 57% 29.67 in 10.0 mi SSW 4.6 mph - N/A   Clear
1:53 AM 44.1 °F 41.5 °F 26.1 °F 49% 29.64 in 10.0 mi SW 4.6 mph - N/A   Clear
2:53 AM 46.9 °F - 24.1 °F 41% 29.62 in 10.0 mi SSW 4.6 mph - N/A   Clear
3:53 AM 37.9 °F - 26.1 °F 62% 29.61 in 10.0 mi Calm Calm - N/A   Clear
4:53 AM 41.0 °F - 25.0 °F 53% 29.58 in 10.0 mi Calm Calm - N/A   Clear
5:53 AM 50.0 °F - 21.0 °F 32% 29.55 in 10.0 mi SSE 8.1 mph - N/A   Clear
6:53 AM 50.0 °F - 19.9 °F 31% 29.54 in 10.0 mi South 8.1 mph - N/A   Clear
7:53 AM 48.9 °F - 21.0 °F 33% 29.53 in 10.0 mi SW 8.1 mph - N/A   Partly Cloudy
8:53 AM 52.0 °F - 21.9 °F 31% 29.52 in 10.0 mi WSW 9.2 mph - N/A   Partly Cloudy
9:53 AM 55.0 °F - 22.1 °F 28% 29.51 in 10.0 mi WSW 8.1 mph - N/A   Scattered Clouds
10:53 AM 57.0 °F - 22.1 °F 26% 29.50 in 10.0 mi West 5.8 mph - N/A   Scattered Clouds
11:53 AM 59.0 °F - 23.0 °F 25% 29.49 in 10.0 mi WSW 9.2 mph - N/A   Scattered Clouds
12:53 PM 66.0 °F - 19.9 °F 17% 29.44 in 10.0 mi SW 21.9 mph 31.1 mph N/A   Partly Cloudy
1:53 PM 64.9 °F - 19.9 °F 18% 29.41 in 10.0 mi WSW 23.0 mph 35.7 mph N/A   Scattered Clouds
2:53 PM 64.9 °F - 19.9 °F 18% 29.39 in 10.0 mi WSW 17.3 mph 25.3 mph N/A   Scattered Clouds
3:53 PM 64.9 °F - 19.0 °F 17% 29.42 in 10.0 mi WSW 16.1 mph 29.9 mph N/A   Scattered Clouds
4:53 PM 64.9 °F - 21.0 °F 19% 29.43 in 10.0 mi WSW 21.9 mph 27.6 mph N/A   Scattered Clouds
5:53 PM 61.0 °F - 21.0 °F 21% 29.43 in 10.0 mi SW 17.3 mph 26.5 mph N/A   Mostly Cloudy
6:53 PM 60.1 °F - 19.9 °F 21% 29.44 in 10.0 mi WSW 32.2 mph 47.2 mph N/A   Scattered Clouds
7:53 PM 57.0 °F - 21.0 °F 25% 29.48 in 10.0 mi WSW 26.5 mph 35.7 mph N/A   Scattered Clouds
8:53 PM 55.0 °F - 21.9 °F 28% 29.51 in 10.0 mi WSW 16.1 mph 23.0 mph N/A   Clear
9:53 PM 55.0 °F - 24.1 °F 30% 29.56 in 10.0 mi West 17.3 mph 26.5 mph N/A   Clear
10:53 PM 39.0 °F 27.6 °F 25.0 °F 57% 29.67 in 10.0 mi NNW 27.6 mph 35.7 mph N/A   Clear
11:53 PM 37.0 °F 29.3 °F 23.0 °F 57% 29.74 in 10.0 mi NNE 11.5 mph - N/A   Partly Cloudy